When you browse on this site, cookies collect data to enhance your experience and personalize the content and advertising you see.
Visit our Privacy Policy to learn more. By continuing to use the site, you agree to this use of cookies and data.
  • In Hungary
  • List of Countries
  • For 7 days
  • Water Temperature
  • Satellite Maps
  • Weather Map
  • News
  • Weather Widgets
  • user-avatar
    Login

    Hourly Weather Alpignano

    Today, 14 December, Friday

    Time Temperature Precipitation Wind Pressure Humidity
    00:00 +1°C° 0 mm 1 mps 729 mmHg 80%
    01:00 +2°C° 0 mm 1 mps 729 mmHg 78%
    02:00 +1°C° 0 mm 1 mps 729 mmHg 79%
    03:00 +1°C° 0 mm 1 mps 729 mmHg 80%
    04:00 0°C° 0 mm 1 mps 728 mmHg 81%
    05:00 0°C° 0 mm 1 mps 729 mmHg 81%
    06:00 0°C° 0 mm 1 mps 729 mmHg 81%
    07:00 0°C° 0 mm 1 mps 729 mmHg 82%
    08:00 +1°C° 0 mm 1 mps 729 mmHg 78%
    09:00 +2°C° 0 mm 1 mps 729 mmHg 74%
    10:00 +3°C° 0 mm 1 mps 729 mmHg 70%
    11:00 +4°C° 0 mm 1 mps 729 mmHg 67%
    12:00 +5°C° 0 mm 1 mps 729 mmHg 64%
    13:00 +5°C° 0 mm 1 mps 730 mmHg 62%
    14:00 +5°C° 0 mm 1 mps 730 mmHg 65%
    15:00 +4°C° 0 mm 1 mps 730 mmHg 68%
    16:00 +4°C° 0 mm 1 mps 730 mmHg 72%
    17:00 +3°C° 0 mm 1 mps 730 mmHg 72%
    18:00 +2°C° 0 mm 1 mps 731 mmHg 73%
    19:00 0°C° 0 mm 1 mps 731 mmHg 74%
    20:00 0°C° 0 mm 1 mps 731 mmHg 71%
    21:00 0°C° 0 mm 1 mps 732 mmHg 69%
    22:00 0°C° 0 mm 1 mps 732 mmHg 67%
    23:00 0°C° 0 mm 1 mps 732 mmHg 64%

    Tomorrow, 15 December, Saturday

    Time Temperature Precipitation Wind Pressure Humidity
    00:00 0°C° 0 mm 1 mps 732 mmHg 62%
    01:00 0°C° 0 mm 1 mps 732 mmHg 59%
    02:00 0°C° 0 mm 1 mps 732 mmHg 58%
    03:00 -1°C° 0 mm 1 mps 733 mmHg 58%
    04:00 -1°C° 0 mm 1 mps 733 mmHg 57%
    05:00 -1°C° 0 mm 1 mps 733 mmHg 56%
    06:00 -1°C° 0 mm 1 mps 733 mmHg 56%
    07:00 -1°C° 0 mm 1 mps 733 mmHg 56%
    08:00 0°C° 0 mm 1 mps 733 mmHg 54%
    09:00 +1°C° 0 mm 1 mps 733 mmHg 53%
    10:00 +2°C° 0 mm 1 mps 733 mmHg 52%
    11:00 +3°C° 0 mm 1 mps 733 mmHg 53%
    12:00 +4°C° 0 mm 1 mps 733 mmHg 53%
    13:00 +6°C° 0 mm 1 mps 733 mmHg 54%
    14:00 +5°C° 0 mm 1 mps 732 mmHg 57%
    15:00 +5°C° 0 mm 1 mps 732 mmHg 61%
    16:00 +4°C° 0 mm 1 mps 732 mmHg 64%
    17:00 +4°C° 0 mm 1 mps 732 mmHg 65%
    18:00 +3°C° 0 mm 1 mps 732 mmHg 66%
    19:00 +2°C° 0 mm 1 mps 732 mmHg 66%
    20:00 +3°C° 0.2 mm 1 mps 732 mmHg 69%
    21:00 +3°C° 0.2 mm 1 mps 733 mmHg 72%
    22:00 +3°C° 0.2 mm 1 mps 733 mmHg 75%
    23:00 +3°C° 0.6 mm 1 mps 733 mmHg 76%

    Day after tomorrow, 16 December, Sunday

    Time Temperature Precipitation Wind Pressure Humidity
    00:00 +3°C° 0.6 mm 1 mps 732 mmHg 77%
    01:00 +4°C° 0.6 mm 1 mps 732 mmHg 78%
    02:00 +4°C° 0.6 mm 1 mps 732 mmHg 76%
    03:00 +3°C° 0.6 mm 1 mps 732 mmHg 75%
    04:00 +3°C° 0.6 mm 1 mps 731 mmHg 73%
    05:00 +3°C° 0.2 mm 1 mps 731 mmHg 72%
    06:00 +3°C° 0.2 mm 1 mps 731 mmHg 70%
    07:00 +3°C° 0.2 mm 1 mps 731 mmHg 69%
    08:00 +4°C° 0.3 mm 1 mps 731 mmHg 67%
    09:00 +4°C° 0.3 mm 1 mps 731 mmHg 66%
    10:00 +5°C° 0.3 mm 1 mps 732 mmHg 64%
    11:00 +5°C° 0.1 mm 1 mps 731 mmHg 64%
    12:00 +6°C° 0.1 mm 1 mps 731 mmHg 63%
    13:00 +6°C° 0.1 mm 1 mps 731 mmHg 63%
    14:00 +6°C° 0.3 mm 1 mps 730 mmHg 66%
    15:00 +5°C° 0.3 mm 1 mps 730 mmHg 68%
    16:00 +5°C° 0.3 mm 1 mps 730 mmHg 71%
    17:00 +4°C° 0.7 mm 1 mps 730 mmHg 76%
    18:00 +4°C° 0.7 mm 1 mps 730 mmHg 81%
    19:00 +4°C° 0.7 mm 1 mps 730 mmHg 86%
    20:00 +4°C° 0.8 mm 1 mps 730 mmHg 88%
    21:00 +3°C° 0.8 mm 1 mps 730 mmHg 91%
    22:00 +3°C° 0.8 mm 1 mps 730 mmHg 93%
    23:00 +3°C° 0.8 mm 1 mps 730 mmHg 94%

    17 December, Monday

    Time Temperature Precipitation Wind Pressure Humidity
    00:00 +3°C° 0.8 mm 1 mps 730 mmHg 95%
    01:00 +3°C° 0.8 mm 1 mps 730 mmHg 96%
    02:00 +3°C° 0.5 mm 1 mps 730 mmHg 95%
    03:00 +3°C° 0.5 mm 1 mps 730 mmHg 95%
    04:00 +3°C° 0.5 mm 1 mps 731 mmHg 95%
    05:00 +3°C° 0.3 mm 1 mps 731 mmHg 95%
    06:00 +3°C° 0.3 mm 1 mps 731 mmHg 94%
    07:00 +3°C° 0.3 mm 1 mps 732 mmHg 94%
    08:00 +4°C° 0.1 mm 1 mps 732 mmHg 92%
    09:00 +3°C° 0.1 mm 2 mps 733 mmHg 91%
    10:00 +4°C° 0.1 mm 2 mps 733 mmHg 90%
    11:00 +4°C° 0.1 mm 2 mps 733 mmHg 88%
    12:00 +5°C° 0.1 mm 2 mps 733 mmHg 86%
    13:00 +6°C° 0.1 mm 2 mps 733 mmHg 85%
    14:00 +5°C° 0 mm 2 mps 734 mmHg 86%
    15:00 +5°C° 0 mm 2 mps 734 mmHg 86%
    16:00 +5°C° 0 mm 2 mps 734 mmHg 87%
    17:00 +4°C° 0 mm 2 mps 735 mmHg 85%
    18:00 +3°C° 0 mm 2 mps 736 mmHg 84%
    19:00 +2°C° 0 mm 2 mps 736 mmHg 82%
    20:00 +2°C° 0 mm 2 mps 737 mmHg 81%
    21:00 +2°C° 0 mm 2 mps 738 mmHg 79%
    22:00 +1°C° 0 mm 2 mps 738 mmHg 77%
    23:00 +1°C° 0 mm 2 mps 738 mmHg 74%

    18 December, Tuesday

    Time Temperature Precipitation Wind Pressure Humidity
    00:00 +1°C° 0 mm 2 mps 738 mmHg 71%
    01:00 +1°C° 0 mm 2 mps 738 mmHg 67%
    02:00 +1°C° 0 mm 2 mps 738 mmHg 65%
    03:00 +1°C° 0 mm 2 mps 738 mmHg 63%
    04:00 +1°C° 0 mm 2 mps 738 mmHg 61%
    05:00 +2°C° 0 mm 1 mps 738 mmHg 60%
    06:00 +2°C° 0 mm 1 mps 738 mmHg 60%
    07:00 +2°C° 0 mm 1 mps 738 mmHg 60%
    08:00 +3°C° 0 mm 1 mps 738 mmHg 61%
    09:00 +4°C° 0 mm 1 mps 739 mmHg 63%
    10:00 +5°C° 0 mm 1 mps 739 mmHg 64%
    11:00 +6°C° 0 mm 1 mps 739 mmHg 66%
    12:00 +7°C° 0 mm 1 mps 738 mmHg 67%
    13:00 +8°C° 0 mm 1 mps 738 mmHg 69%
    14:00 +7°C° 0 mm 1 mps 737 mmHg 72%
    15:00 +6°C° 0 mm 1 mps 737 mmHg 76%
    16:00 +6°C° 0 mm 1 mps 737 mmHg 79%
    17:00 +5°C° 0 mm 1 mps 737 mmHg 77%
    18:00 +4°C° 0 mm 1 mps 737 mmHg 76%
    19:00 +4°C° 0 mm 1 mps 737 mmHg 74%
    20:00 +4°C° 0 mm 1 mps 737 mmHg 73%
    21:00 +4°C° 0 mm 1 mps 737 mmHg 72%
    22:00 +4°C° 0 mm 1 mps 737 mmHg 72%
    23:00 +4°C° 0 mm 1 mps 736 mmHg 73%

    19 December, Wednesday

    Time Temperature Precipitation Wind Pressure Humidity
    00:00 +5°C° 0 mm 1 mps 736 mmHg 74%
    01:00 +5°C° 0 mm 1 mps 736 mmHg 75%
    02:00 +5°C° 0.2 mm 1 mps 735 mmHg 78%
    03:00 +5°C° 0.2 mm 1 mps 735 mmHg 81%
    04:00 +5°C° 0.2 mm 1 mps 735 mmHg 85%
    05:00 +5°C° 0.2 mm 1 mps 734 mmHg 86%
    06:00 +5°C° 0.2 mm 1 mps 734 mmHg 88%
    07:00 +5°C° 0.2 mm 1 mps 734 mmHg 89%
    08:00 +5°C° 0.1 mm 1 mps 734 mmHg 88%
    09:00 +6°C° 0.1 mm 1 mps 734 mmHg 88%
    10:00 +6°C° 0.1 mm 1 mps 734 mmHg 87%
    11:00 +7°C° 0.1 mm 1 mps 733 mmHg 87%
    12:00 +7°C° 0.1 mm 1 mps 733 mmHg 87%
    13:00 +8°C° 0.1 mm 1 mps 733 mmHg 86%
    14:00 +7°C° 0.1 mm 1 mps 732 mmHg 88%
    15:00 +7°C° 0.1 mm 1 mps 732 mmHg 89%
    16:00 +7°C° 0.1 mm 1 mps 732 mmHg 91%
    17:00 +6°C° 0.1 mm 1 mps 732 mmHg 91%
    18:00 +6°C° 0.1 mm 1 mps 732 mmHg 91%
    19:00 +5°C° 0.1 mm 1 mps 732 mmHg 92%
    20:00 +5°C° 0 mm 1 mps 732 mmHg 91%
    21:00 +4°C° 0 mm 1 mps 732 mmHg 91%
    22:00 +4°C° 0 mm 1 mps 732 mmHg 90%
    23:00 +4°C° 0 mm 1 mps 732 mmHg 89%
    Show more